TimeEST,TemperatureF,Dew PointF,Humidity,Sea Level PressureIn,VisibilityMPH,Wind Direction,Wind SpeedMPH,Gust SpeedMPH,PrecipitationIn,Events,Conditions,WindDirDegrees,DateUTC
12:54 AM,24.1,19.0,81,30.47,10.0,Calm,Calm,-,N/A,,Clear,0,2013-11-14 05:54:00
1:54 AM,23.0,17.1,78,30.46,10.0,Calm,Calm,-,N/A,,Clear,0,2013-11-14 06:54:00
2:54 AM,21.0,18.0,88,30.45,10.0,NW,3.5,-,N/A,,Clear,320,2013-11-14 07:54:00
3:54 AM,21.9,17.1,82,30.45,10.0,Calm,Calm,-,N/A,,Clear,0,2013-11-14 08:54:00
4:54 AM,19.9,17.1,89,30.45,10.0,Calm,Calm,-,N/A,,Clear,0,2013-11-14 09:54:00
5:54 AM,19.0,17.1,92,30.47,10.0,Calm,Calm,-,N/A,,Clear,0,2013-11-14 10:54:00
6:54 AM,19.9,17.1,89,30.48,10.0,Calm,Calm,-,N/A,,Clear,0,2013-11-14 11:54:00
7:54 AM,24.1,19.0,81,30.49,10.0,Calm,Calm,-,N/A,,Clear,0,2013-11-14 12:54:00
8:54 AM,30.0,21.0,69,30.49,10.0,Calm,Calm,-,N/A,,Clear,0,2013-11-14 13:54:00
9:54 AM,35.1,19.9,54,30.48,10.0,NNW,5.8,-,N/A,,Clear,340,2013-11-14 14:54:00
10:54 AM,44.1,21.0,40,30.46,10.0,Calm,Calm,-,N/A,,Clear,0,2013-11-14 15:54:00
11:54 AM,51.1,14.0,23,30.42,10.0,North,10.4,-,N/A,,Clear,360,2013-11-14 16:54:00
12:54 PM,54.0,10.0,17,30.38,10.0,Calm,Calm,-,N/A,,Clear,0,2013-11-14 17:54:00
1:54 PM,55.0,8.1,15,30.35,10.0,Calm,Calm,-,N/A,,Clear,0,2013-11-14 18:54:00
2:54 PM,57.9,12.0,16,30.32,10.0,Calm,Calm,-,N/A,,Clear,0,2013-11-14 19:54:00
3:54 PM,57.0,16.0,20,30.31,10.0,SSE,8.1,-,N/A,,Clear,150,2013-11-14 20:54:00
4:54 PM,53.1,17.1,24,30.32,10.0,SSE,6.9,-,N/A,,Clear,150,2013-11-14 21:54:00
5:54 PM,50.0,16.0,26,30.33,10.0,SSE,6.9,-,N/A,,Clear,160,2013-11-14 22:54:00
6:54 PM,46.0,16.0,30,30.35,10.0,SSE,5.8,-,N/A,,Clear,150,2013-11-14 23:54:00
7:54 PM,44.1,16.0,32,30.35,10.0,SE,4.6,-,N/A,,Clear,140,2013-11-15 00:54:00
8:54 PM,37.9,19.0,47,30.34,10.0,Calm,Calm,-,N/A,,Clear,0,2013-11-15 01:54:00
9:54 PM,37.9,18.0,45,30.34,10.0,Calm,Calm,-,N/A,,Clear,0,2013-11-15 02:54:00
10:54 PM,36.0,19.0,50,30.33,10.0,Calm,Calm,-,N/A,,Clear,0,2013-11-15 03:54:00
11:54 PM,28.0,21.0,75,30.33,10.0,SSW,3.5,-,N/A,,Clear,200,2013-11-15 04:54:00